| time (UTC) | temp F | wind direction | speed MPH | gust MPH | rain 1hr in | rain 24hr in | rain mn in | humidity % | barometer mb |
| 20260502223744 | 49 | 126 | 0.0 | 0.0 | 0.00 | 0.08 | 0.08 | 91 | 1009.9 |
| 20260502223242 | 49 | 131 | 2.0 | 4.0 | 0.00 | 0.08 | 0.08 | 91 | 1009.8 |
| 20260502222739 | 49 | 123 | 4.0 | 5.0 | 0.00 | 0.08 | 0.08 | 91 | 1010.0 |
| 20260502222236 | 49 | 133 | 4.0 | 4.0 | 0.00 | 0.08 | 0.08 | 91 | 1010.0 |
| 20260502221731 | 49 | 141 | 0.0 | 3.0 | 0.00 | 0.08 | 0.08 | 90 | 1010.2 |
| 20260502221228 | 49 | 122 | 0.0 | 2.0 | 0.05 | 0.08 | 0.08 | 90 | 1010.1 |
| 20260502220725 | 49 | 84 | 2.0 | 3.0 | 0.07 | 0.08 | 0.08 | 90 | 1010.0 |
| 20260502220221 | 49 | 95 | 2.0 | 2.0 | 0.05 | 0.07 | 0.07 | 89 | 1010.2 |
| 20260502215718 | 49 | 345 | 0.0 | 0.0 | 0.05 | 0.07 | 0.07 | 89 | 1010.3 |
| 20260502215215 | 50 | 345 | 0.0 | 1.0 | 0.07 | 0.07 | 0.07 | 88 | 1010.4 |
| 20260502214713 | 50 | 312 | 0.0 | 0.0 | 0.05 | 0.06 | 0.06 | 87 | 1010.3 |
| 20260502214210 | 50 | 54 | 0.0 | 1.0 | 0.05 | 0.06 | 0.06 | 86 | 1010.2 |
| 20260502213707 | 50 | 34 | 0.0 | 1.0 | 0.05 | 0.05 | 0.05 | 85 | 1010.2 |
| 20260502213204 | 50 | 66 | 0.0 | 1.0 | 0.05 | 0.05 | 0.05 | 83 | 1010.2 |
| 20260502212702 | 51 | 309 | 1.0 | 2.0 | 0.02 | 0.04 | 0.04 | 82 | 1010.1 |
| 20260502212200 | 51 | 343 | 2.0 | 2.0 | 0.00 | 0.04 | 0.04 | 80 | 1010.1 |
| 20260502211656 | 51 | 312 | 2.0 | 2.0 | 0.00 | 0.04 | 0.04 | 78 | 1010.1 |
| 20260502211153 | 52 | 280 | 2.0 | 5.0 | 0.00 | 0.04 | 0.04 | 75 | 1010.3 |
| 20260502210650 | 53 | 331 | 2.0 | 4.0 | 0.00 | 0.04 | 0.04 | 73 | 1010.1 |
| 20260502210147 | 54 | 274 | 4.0 | 5.0 | 0.00 | 0.04 | 0.04 | 69 | 1010.1 |
| 20260502205644 | 54 | 228 | 0.0 | 3.0 | 0.00 | 0.04 | 0.04 | 68 | 1009.9 |
| 20260502205141 | 54 | 228 | 4.0 | 6.0 | 0.00 | 0.04 | 0.04 | 67 | 1009.8 |
| 20260502204638 | 54 | 183 | 2.0 | 8.0 | 0.00 | 0.04 | 0.04 | 69 | 1009.9 |
| 20260502204135 | 54 | 174 | 2.0 | 13.0 | 0.00 | 0.04 | 0.04 | 68 | 1009.7 |
| 20260502203632 | 54 | 215 | 5.0 | 6.0 | 0.00 | 0.04 | 0.04 | 67 | 1009.9 |
| 20260502203131 | 54 | 182 | 3.0 | 5.0 | 0.00 | 0.04 | 0.04 | 66 | 1009.8 |
| 20260502202631 | 54 | 179 | 3.0 | 13.0 | 0.00 | 0.04 | 0.04 | 65 | 1009.9 |
| 20260502202129 | 55 | 199 | 5.0 | 6.0 | 0.00 | 0.04 | 0.04 | 64 | 1009.8 |
| 20260502201625 | 55 | 188 | 3.0 | 9.0 | 0.00 | 0.04 | 0.04 | 64 | 1009.9 |
| 20260502201122 | 55 | 152 | 4.0 | 13.0 | 0.00 | 0.04 | 0.04 | 63 | 1009.8 |
| 20260502200618 | 55 | 181 | 6.0 | 8.0 | 0.00 | 0.04 | 0.04 | 61 | 1009.9 |
| 20260502200115 | 56 | 187 | 4.0 | 9.0 | 0.00 | 0.04 | 0.04 | 60 | 1009.9 |
| 20260502195614 | 55 | 79 | 2.0 | 8.0 | 0.00 | 0.04 | 0.04 | 61 | 1009.9 |
| 20260502195109 | 55 | 166 | 2.0 | 4.0 | 0.00 | 0.04 | 0.04 | 63 | 1009.9 |
| 20260502194606 | 55 | 159 | 5.0 | 7.0 | 0.00 | 0.04 | 0.04 | 62 | 1010.0 |
| 20260502194102 | 54 | 157 | 3.0 | 7.0 | 0.00 | 0.04 | 0.04 | 60 | 1010.2 |
| 20260502193600 | 54 | 173 | 2.0 | 5.0 | 0.00 | 0.04 | 0.04 | 61 | 1010.1 |
| 20260502193056 | 54 | 146 | 4.0 | 6.0 | 0.00 | 0.04 | 0.04 | 62 | 1010.4 |
| 20260502192552 | 55 | 193 | 5.0 | 16.0 | 0.00 | 0.04 | 0.04 | 60 | 1010.5 |
| 20260502192050 | 55 | 168 | 4.0 | 6.0 | 0.00 | 0.04 | 0.04 | 59 | 1010.4 |
| 20260502191546 | 56 | 185 | 5.0 | 10.0 | 0.00 | 0.04 | 0.04 | 59 | 1010.6 |
| 20260502191044 | 55 | 232 | 2.0 | 9.0 | 0.00 | 0.04 | 0.04 | 61 | 1010.8 |
| 20260502190542 | 55 | 184 | 4.0 | 6.0 | 0.00 | 0.04 | 0.04 | 59 | 1010.8 |
| 20260502190038 | 54 | 157 | 2.0 | 10.0 | 0.00 | 0.04 | 0.04 | 58 | 1010.8 |
| 20260502185533 | 54 | 227 | 4.0 | 4.0 | 0.00 | 0.04 | 0.04 | 60 | 1010.6 |
| 20260502185030 | 53 | 147 | 3.0 | 14.0 | 0.00 | 0.04 | 0.04 | 60 | 1010.7 |
| 20260502184526 | 54 | 177 | 4.0 | 8.0 | 0.00 | 0.04 | 0.04 | 62 | 1010.7 |
| 20260502184022 | 53 | 105 | 2.0 | 4.0 | 0.00 | 0.04 | 0.04 | 66 | 1010.8 |
| 20260502183519 | 53 | 152 | 5.0 | 10.0 | 0.00 | 0.04 | 0.04 | 63 | 1010.8 |
| 20260502183015 | 53 | 151 | 12.0 | 14.0 | 0.00 | 0.04 | 0.04 | 65 | 1010.9 |
| 20260502182509 | 52 | 134 | 2.0 | 7.0 | 0.00 | 0.04 | 0.04 | 70 | 1010.8 |
| 20260502182006 | 52 | 166 | 3.0 | 4.0 | 0.00 | 0.04 | 0.04 | 75 | 1010.9 |
| 20260502181504 | 51 | 204 | 5.0 | 6.0 | 0.00 | 0.04 | 0.04 | 74 | 1011.0 |
| 20260502181002 | 51 | 178 | 3.0 | 5.0 | 0.00 | 0.04 | 0.04 | 76 | 1011.0 |
| 20260502180459 | 51 | 166 | 4.0 | 8.0 | 0.00 | 0.04 | 0.04 | 76 | 1010.9 |
| 20260502170418 | 52 | 295 | 0.0 | 1.0 | 0.05 | 0.02 | 0.02 | 79 | 1011.3 |
| 20260502163901 | 53 | 102 | 0.0 | 2.0 | 0.00 | 0.01 | 0.01 | 67 | 1011.3 |
| 20260502163358 | 53 | 225 | 2.0 | 3.0 | 0.00 | 0.01 | 0.01 | 64 | 1011.3 |
| 20260502162856 | 53 | 268 | 3.0 | 3.0 | 0.00 | 0.01 | 0.01 | 63 | 1011.2 |
| 20260502162352 | 54 | 217 | 2.0 | 3.0 | 0.00 | 0.01 | 0.01 | 61 | 1011.5 |
| 20260502161849 | 54 | 190 | 2.0 | 4.0 | 0.00 | 0.01 | 0.01 | 61 | 1011.1 |
| 20260502161345 | 55 | 268 | 3.0 | 4.0 | 0.00 | 0.01 | 0.01 | 60 | 1011.4 |
| 20260502160843 | 55 | 222 | 2.0 | 2.0 | 0.00 | 0.01 | 0.01 | 62 | 1011.3 |
| 20260502160341 | 55 | 83 | 2.0 | 3.0 | 0.00 | 0.01 | 0.01 | 64 | 1011.3 |
| 20260502152311 | 55 | 263 | 1.0 | 2.0 | 0.00 | 0.01 | 0.01 | 72 | 1011.5 |
| 20260502151808 | 54 | 138 | 2.0 | 4.0 | 0.00 | 0.01 | 0.01 | 72 | 1011.5 |
| 20260502151305 | 53 | 181 | 1.0 | 7.0 | 0.00 | 0.01 | 0.01 | 71 | 1011.7 |
| 20260502150803 | 53 | 139 | 2.0 | 4.0 | 0.00 | 0.01 | 0.01 | 73 | 1011.8 |
| 20260502150259 | 54 | 69 | 3.0 | 5.0 | 0.00 | 0.01 | 0.01 | 73 | 1012.0 |
| 20260502130647 | 49 | 170 | 2.0 | 2.0 | 0.00 | 0.01 | 0.01 | 86 | 1012.5 |
| 20260502130145 | 49 | 105 | 0.0 | 0.0 | 0.00 | 0.01 | 0.01 | 86 | 1012.6 |
| 20260502123630 | 50 | 295 | 2.0 | 3.0 | 0.00 | 0.00 | 0.00 | 78 | 1012.7 |
| 20260502123127 | 50 | 349 | 1.0 | 2.0 | 0.00 | 0.00 | 0.00 | 78 | 1012.7 |
| 20260502122623 | 50 | 306 | 3.0 | 4.0 | 0.00 | 0.00 | 0.00 | 78 | 1012.9 |
| 20260502122120 | 50 | 212 | 4.0 | 5.0 | 0.00 | 0.00 | 0.00 | 77 | 1012.6 |
| 20260502121619 | 50 | 210 | 2.0 | 3.0 | 0.00 | 0.00 | 0.00 | 77 | 1012.6 |
| 20260502121115 | 50 | 281 | 3.0 | 4.0 | 0.00 | 0.00 | 0.00 | 77 | 1012.6 |
| 20260502120612 | 50 | 260 | 3.0 | 3.0 | 0.00 | 0.00 | 0.00 | 77 | 1012.5 |
| 20260502120109 | 50 | 277 | 2.0 | 2.0 | 0.00 | 0.00 | 0.00 | 77 | 1012.2 |
| 20260502115607 | 50 | 58 | 1.0 | 3.0 | 0.00 | 0.00 | 0.00 | 77 | 1012.1 |
| 20260502115102 | 50 | 265 | 1.0 | 2.0 | 0.00 | 0.00 | 0.00 | 77 | 1012.3 |
| 20260502114559 | 50 | 220 | 1.0 | 2.0 | 0.00 | 0.00 | 0.00 | 76 | 1012.1 |
| 20260502114056 | 51 | 283 | 0.0 | 2.0 | 0.00 | 0.00 | 0.00 | 75 | 1011.8 |
| 20260502113553 | 52 | 135 | 4.0 | 4.0 | 0.00 | 0.00 | 0.00 | 73 | 1011.8 |
| 20260502113052 | 50 | 117 | 1.0 | 2.0 | 0.00 | 0.00 | 0.00 | 78 | 1011.6 |
| 20260502112549 | 49 | 84 | 0.0 | 2.0 | 0.00 | 0.00 | 0.00 | 80 | 1011.6 |
| 20260502112047 | 49 | 158 | 2.0 | 2.0 | 0.00 | 0.00 | 0.00 | 79 | 1011.6 |
| 20260502111544 | 48 | 78 | 0.0 | 1.0 | 0.00 | 0.00 | 0.00 | 80 | 1011.7 |
| 20260502111041 | 48 | 126 | 0.0 | 2.0 | 0.00 | 0.00 | 0.00 | 80 | 1011.6 |
| 20260502110538 | 48 | 119 | 0.0 | 2.0 | 0.00 | 0.00 | 0.00 | 80 | 1011.9 |
| 20260502110036 | 48 | 224 | 0.0 | 0.0 | 0.00 | 0.00 | 0.00 | 80 | 1011.8 |
| 20260502105533 | 48 | 124 | 0.0 | 1.0 | 0.00 | 0.00 | 0.00 | 80 | 1011.8 |
| 20260502105031 | 48 | 96 | 1.0 | 1.0 | 0.00 | 0.00 | 0.00 | 81 | 1011.8 |
| 20260502104527 | 48 | 135 | 2.0 | 2.0 | 0.00 | 0.00 | 0.00 | 82 | 1011.6 |
| 20260502104025 | 48 | 67 | 0.0 | 2.0 | 0.00 | 0.00 | 0.00 | 83 | 1011.6 |
| 20260502103523 | 48 | 280 | 0.0 | 1.0 | 0.00 | 0.00 | 0.00 | 82 | 1012.0 |
| 20260502103021 | 47 | 119 | 2.0 | 3.0 | 0.00 | 0.00 | 0.00 | 82 | 1011.5 |
| 20260502102517 | 47 | 142 | 0.0 | 2.0 | 0.00 | 0.00 | 0.00 | 83 | 1011.7 |
| 20260502102014 | 47 | 119 | 1.0 | 2.0 | 0.00 | 0.00 | 0.00 | 85 | 1011.5 |
| 20260502101512 | 47 | 147 | 0.0 | 0.0 | 0.00 | 0.00 | 0.00 | 87 | 1011.8 |
| 20260502101010 | 47 | 175 | 0.0 | 0.0 | 0.00 | 0.00 | 0.00 | 85 | 1011.3 |
| 20260502100508 | 47 | 122 | 2.0 | 2.0 | 0.00 | 0.00 | 0.00 | 85 | 1011.0 |
| 20260502091443 | 46 | 129 | 1.0 | 2.0 | 0.00 | 0.00 | 0.00 | 87 | 1011.2 |
| 20260502090940 | 46 | 62 | 2.0 | 2.0 | 0.00 | 0.00 | 0.00 | 87 | 1011.3 |
| 20260502090437 | 46 | 129 | 2.0 | 2.0 | 0.00 | 0.00 | 0.00 | 87 | 1011.3 |
| 20260502071331 | 48 | 55 | 0.0 | 2.0 | 0.00 | 0.00 | 0.00 | 74 | 1011.3 |
| 20260502070829 | 48 | 46 | 2.0 | 3.0 | 0.00 | 0.00 | 0.00 | 74 | 1011.3 |
| 20260502070327 | 48 | 57 | 2.0 | 2.0 | 0.00 | 0.00 | 0.00 | 72 | 1011.4 |
| 20260502065826 | 49 | 77 | 2.0 | 2.0 | 0.00 | 0.00 | 0.00 | 71 | 1011.2 |
| 20260502065323 | 49 | 61 | 2.0 | 2.0 | 0.00 | 0.00 | 0.00 | 71 | 1011.2 |
| 20260502064821 | 49 | 26 | 0.0 | 3.0 | 0.00 | 0.00 | 0.00 | 71 | 1011.3 |
| 20260502064319 | 48 | 98 | 0.0 | 2.0 | 0.00 | 0.00 | 0.00 | 72 | 1011.2 |
| 20260502063816 | 48 | 160 | 0.0 | 2.0 | 0.00 | 0.00 | 0.00 | 73 | 1011.5 |
| 20260502063314 | 48 | 22 | 0.0 | 0.0 | 0.00 | 0.00 | 0.00 | 75 | 1011.7 |
| 20260502062810 | 47 | 339 | 0.0 | 2.0 | 0.00 | 0.00 | 0.00 | 75 | 1011.6 |
| 20260502062308 | 47 | 60 | 0.0 | 1.0 | 0.00 | 0.00 | 0.00 | 75 | 1011.6 |
| 20260502061807 | 46 | 89 | 0.0 | 2.0 | 0.00 | 0.00 | 0.00 | 75 | 1011.4 |
| 20260502061304 | 46 | 50 | 2.0 | 2.0 | 0.00 | 0.00 | 0.00 | 77 | 1011.4 |
| 20260502060759 | 46 | 70 | 1.0 | 2.0 | 0.00 | 0.00 | 0.00 | 77 | 1011.5 |
| 20260502060255 | 46 | 157 | 0.0 | 0.0 | 0.00 | 0.00 | 0.00 | 77 | 1011.5 |
| 20260502055753 | 46 | 49 | 1.0 | 2.0 | 0.00 | 0.00 | 0.00 | 76 | 1011.5 |
| 20260502055250 | 46 | 79 | 1.0 | 2.0 | 0.00 | 0.00 | 0.00 | 76 | 1011.4 |
| 20260502054749 | 46 | 69 | 0.0 | 0.0 | 0.00 | 0.00 | 0.00 | 76 | 1011.6 |
| 20260502054247 | 46 | 69 | 1.0 | 2.0 | 0.00 | 0.00 | 0.00 | 75 | 1011.5 |
| 20260502053744 | 46 | 72 | 1.0 | 1.0 | 0.00 | 0.00 | 0.00 | 74 | 1011.5 |
| 20260502053241 | 45 | 89 | 2.0 | 2.0 | 0.00 | 0.00 | 0.00 | 75 | 1011.6 |
| 20260502052739 | 45 | 82 | 2.0 | 2.0 | 0.00 | 0.00 | 0.00 | 75 | 1011.7 |
| 20260502052237 | 45 | 89 | 0.0 | 1.0 | 0.00 | 0.00 | 0.00 | 74 | 1011.6 |
| 20260502051735 | 46 | 97 | 1.0 | 2.0 | 0.00 | 0.00 | 0.00 | 74 | 1011.5 |
| 20260502051233 | 46 | 65 | 0.0 | 1.0 | 0.00 | 0.00 | 0.00 | 73 | 1011.7 |
| 20260502050728 | 46 | 74 | 0.0 | 2.0 | 0.00 | 0.00 | 0.00 | 72 | 1011.7 |
| 20260502050225 | 46 | 123 | 0.0 | 2.0 | 0.00 | 0.00 | 0.00 | 71 | 1011.8 |
| 20260502045722 | 46 | 91 | 2.0 | 2.0 | 0.00 | 0.00 | 0.00 | 70 | 1011.5 |
| 20260502045219 | 46 | 123 | 2.0 | 2.0 | 0.00 | 0.00 | 0.00 | 69 | 1011.6 |
| 20260502044716 | 47 | 113 | 1.0 | 2.0 | 0.00 | 0.00 | 0.00 | 70 | 1011.7 |
| 20260502044212 | 47 | 89 | 1.0 | 2.0 | 0.00 | 0.00 | 0.00 | 69 | 1011.5 |
| 20260502043710 | 47 | 118 | 2.0 | 2.0 | 0.00 | 0.00 | 0.00 | 68 | 1011.7 |
| 20260502043207 | 47 | 103 | 1.0 | 2.0 | 0.00 | 0.00 | 0.00 | 68 | 1011.7 |
| 20260502042706 | 47 | 95 | 1.0 | 1.0 | 0.00 | 0.00 | 0.00 | 68 | 1011.8 |
| 20260502042204 | 48 | 110 | 0.0 | 2.0 | 0.00 | 0.00 | 0.00 | 66 | 1011.7 |
| 20260502041701 | 48 | 103 | 0.0 | 2.0 | 0.00 | 0.00 | 0.00 | 65 | 1011.6 |
| 20260502041158 | 48 | 60 | 1.0 | 2.0 | 0.00 | 0.00 | 0.00 | 65 | 1011.7 |
| 20260502040655 | 48 | 112 | 1.0 | 2.0 | 0.00 | 0.00 | 0.00 | 63 | 1011.7 |
| 20260502040153 | 49 | 57 | 0.0 | 2.0 | 0.00 | 0.00 | 0.00 | 62 | 1011.7 |
| 20260502035649 | 49 | 109 | 1.0 | 1.0 | 0.00 | 0.00 | 0.00 | 62 | 1011.7 |
| 20260502035145 | 49 | 92 | 1.0 | 2.0 | 0.00 | 0.00 | 0.00 | 60 | 1011.8 |
| 20260502034643 | 49 | 70 | 2.0 | 2.0 | 0.00 | 0.00 | 0.00 | 61 | 1011.7 |
| 20260502034141 | 50 | 77 | 2.0 | 2.0 | 0.00 | 0.00 | 0.00 | 60 | 1011.7 |
| 20260502033639 | 50 | 65 | 0.0 | 2.0 | 0.00 | 0.00 | 0.00 | 59 | 1011.8 |
| 20260502033137 | 50 | 55 | 2.0 | 2.0 | 0.00 | 0.00 | 0.00 | 59 | 1011.6 |
| 20260502032632 | 49 | 48 | 1.0 | 2.0 | 0.00 | 0.00 | 0.00 | 59 | 1011.9 |
| 20260502032129 | 49 | 63 | 2.0 | 2.0 | 0.00 | 0.00 | 0.00 | 60 | 1011.9 |
| 20260502031627 | 48 | 84 | 1.0 | 2.0 | 0.00 | 0.00 | 0.00 | 60 | 1011.8 |
| 20260502031124 | 49 | 61 | 0.0 | 2.0 | 0.00 | 0.00 | 0.00 | 59 | 1011.6 |
| 20260502030623 | 49 | 66 | 1.0 | 2.0 | 0.00 | 0.00 | 0.00 | 59 | 1011.7 |
| 20260502030121 | 49 | 106 | 1.0 | 2.0 | 0.00 | 0.00 | 0.00 | 60 | 1011.9 |
| 20260502025618 | 49 | 70 | 2.0 | 2.0 | 0.00 | 0.00 | 0.00 | 59 | 1011.6 |
| 20260502025116 | 48 | 49 | 0.0 | 2.0 | 0.00 | 0.00 | 0.00 | 60 | 1011.6 |
| 20260502024614 | 48 | 49 | 2.0 | 2.0 | 0.00 | 0.00 | 0.00 | 59 | 1011.6 |
| 20260502024111 | 48 | 78 | 1.0 | 2.0 | 0.00 | 0.00 | 0.00 | 61 | 1011.5 |
| 20260502023609 | 47 | 86 | 2.0 | 2.0 | 0.00 | 0.00 | 0.00 | 63 | 1011.7 |
| 20260502023106 | 46 | 341 | 0.0 | 2.0 | 0.00 | 0.00 | 0.00 | 64 | 1011.7 |
| 20260502022603 | 46 | 77 | 2.0 | 2.0 | 0.00 | 0.00 | 0.00 | 66 | 1011.8 |
| 20260502022100 | 46 | 78 | 0.0 | 2.0 | 0.00 | 0.00 | 0.00 | 66 | 1011.7 |
| 20260502021557 | 45 | 52 | 2.0 | 3.0 | 0.00 | 0.00 | 0.00 | 72 | 1011.7 |
| 20260502021054 | 44 | 99 | 2.0 | 2.0 | 0.00 | 0.00 | 0.00 | 73 | 1011.9 |
| 20260502020552 | 44 | 63 | 1.0 | 2.0 | 0.00 | 0.00 | 0.00 | 73 | 1011.5 |
| 20260502020048 | 45 | 71 | 2.0 | 2.0 | 0.00 | 0.00 | 0.00 | 72 | 1011.6 |
| 20260502015546 | 45 | 230 | 0.0 | 1.0 | 0.00 | 0.00 | 0.00 | 71 | 1011.4 |
| 20260502015042 | 45 | 89 | 0.0 | 0.0 | 0.00 | 0.00 | 0.00 | 71 | 1011.4 |
| 20260502014539 | 45 | 113 | 0.0 | 0.0 | 0.00 | 0.00 | 0.00 | 69 | 1011.5 |
| 20260502014037 | 45 | 113 | 0.0 | 0.0 | 0.00 | 0.00 | 0.00 | 69 | 1011.1 |
| 20260502013532 | 45 | 89 | 0.0 | 0.0 | 0.00 | 0.00 | 0.00 | 68 | 1011.2 |
| 20260502013028 | 46 | 103 | 0.0 | 1.0 | 0.00 | 0.00 | 0.00 | 67 | 1011.4 |
| 20260502012526 | 46 | 84 | 1.0 | 1.0 | 0.00 | 0.00 | 0.00 | 65 | 1011.3 |
| 20260502012023 | 46 | 77 | 0.0 | 2.0 | 0.00 | 0.00 | 0.00 | 64 | 1011.4 |
| 20260502011520 | 47 | 103 | 0.0 | 1.0 | 0.00 | 0.00 | 0.00 | 61 | 1011.2 |
| 20260502011016 | 47 | 76 | 0.0 | 0.0 | 0.00 | 0.00 | 0.00 | 60 | 1011.2 |
| 20260502010514 | 48 | 76 | 0.0 | 0.0 | 0.00 | 0.00 | 0.00 | 59 | 1010.9 |
| 20260502010010 | 48 | 57 | 0.0 | 1.0 | 0.00 | 0.00 | 0.00 | 58 | 1011.0 |
| 20260502005508 | 48 | 69 | 0.0 | 0.0 | 0.00 | 0.00 | 0.00 | 58 | 1011.0 |
| 20260502005005 | 49 | 43 | 1.0 | 2.0 | 0.00 | 0.00 | 0.00 | 57 | 1010.9 |
| 20260502004500 | 49 | 44 | 0.0 | 1.0 | 0.00 | 0.00 | 0.00 | 56 | 1010.9 |
| 20260502003958 | 50 | 76 | 0.0 | 0.0 | 0.00 | 0.00 | 0.00 | 55 | 1010.8 |
| 20260502003455 | 50 | 61 | 1.0 | 2.0 | 0.00 | 0.00 | 0.00 | 56 | 1010.7 |
| 20260502002951 | 51 | 75 | 0.0 | 1.0 | 0.00 | 0.00 | 0.00 | 53 | 1010.7 |
| 20260502002449 | 51 | 79 | 0.0 | 1.0 | 0.00 | 0.00 | 0.00 | 51 | 1010.5 |
| 20260502001946 | 52 | 82 | 0.0 | 1.0 | 0.00 | 0.00 | 0.00 | 49 | 1010.5 |
| 20260502001443 | 52 | 49 | 0.0 | 1.0 | 0.00 | 0.00 | 0.00 | 49 | 1010.5 |
| 20260502000941 | 53 | 89 | 0.0 | 2.0 | 0.00 | 0.00 | 0.00 | 46 | 1010.3 |
| 20260502000440 | 54 | 89 | 0.0 | 1.0 | 0.00 | 0.00 | 0.00 | 42 | 1010.1 |
| 20260501235935 | 55 | 129 | 0.0 | 1.0 | 0.00 | 0.00 | 0.00 | 43 | 1010.1 |
| 20260501235431 | 55 | 89 | 0.0 | 2.0 | 0.00 | 0.00 | 0.00 | 40 | 1010.0 |
| 20260501234926 | 56 | 58 | 1.0 | 2.0 | 0.00 | 0.00 | 0.00 | 39 | 1010.0 |
| 20260501234424 | 57 | 37 | 0.0 | 0.0 | 0.00 | 0.00 | 0.00 | 39 | 1009.8 |
| 20260501233922 | 58 | 106 | 0.0 | 1.0 | 0.00 | 0.00 | 0.00 | 36 | 1009.7 |
| 20260501233419 | 59 | 3 | 0.0 | 2.0 | 0.00 | 0.00 | 0.00 | 32 | 1009.7 |
| 20260501232914 | 60 | 284 | 2.0 | 2.0 | 0.00 | 0.00 | 0.00 | 33 | 1009.6 |
| 20260501232412 | 60 | 272 | 3.0 | 4.0 | 0.00 | 0.00 | 0.00 | 30 | 1009.5 |
| 20260501231909 | 60 | 298 | 0.0 | 2.0 | 0.00 | 0.00 | 0.00 | 30 | 1009.6 |
| 20260501231408 | 60 | 301 | 0.0 | 2.0 | 0.00 | 0.00 | 0.00 | 29 | 1009.1 |
| 20260501230905 | 61 | 320 | 2.0 | 4.0 | 0.00 | 0.00 | 0.00 | 31 | 1009.2 |
| 20260501230404 | 61 | 295 | 2.0 | 4.0 | 0.00 | 0.00 | 0.00 | 30 | 1009.3 |
| 20260501225901 | 61 | 316 | 2.0 | 2.0 | 0.00 | 0.00 | 0.00 | 29 | 1009.3 |
| 20260501225359 | 62 | 225 | 2.0 | 2.0 | 0.00 | 0.00 | 0.00 | 28 | 1009.2 |
| 20260501224854 | 62 | 286 | 0.0 | 4.0 | 0.00 | 0.00 | 0.00 | 28 | 1009.2 |
| 20260501224352 | 62 | 257 | 4.0 | 5.0 | 0.00 | 0.00 | 0.00 | 28 | 1009.3 |